Find Local Weather

World > North America > United States > Michigan

Union Lake, Michigan Regional Weather

Lat: 42.61N, Lon: 83.45W
Wx Zone: MIZ069
Warning FLW WEATHER ALERT - (More Info. Click Here) Warning
Feedback
Expires:201808201200;;941990
ASUS43 KDTX 201101
RWRMI 
MICHIGAN HOURLY REGIONAL WEATHER ROUNDUP
NATIONAL WEATHER SERVICE DETROIT/PONTIAC MI
700 AM EDT MON AUG 20 2018

NOTE: "FAIR" INDICATES FEW OR NO CLOUDS BELOW 12,000 FEET WITH NO
SIGNIFICANT WEATHER AND/OR OBSTRUCTION TO VISIBILITY.


MIZ047>049-052>055-059>063-066>070-074>076-081>083-201200-
SOUTHEAST LOWER MICHIGAN
  
CITY           SKY/WX    TMP DP  RH WIND       PRES   REMARKS
ADRIAN         FAIR      61  60  97 CALM      30.04R FOG              
ANN ARBOR      FAIR      59  59 100 N3        30.04R                  
BAD AXE        FOG       58  57  97 CALM      30.06R VSB 1/4          
CARO           FOG       59  58  96 CALM      30.05S VSB 1/4          
DETROIT CITY   FAIR      65  62  90 CALM      30.04R                  
DETROIT        CLOUDY    67  61  81 NE5       30.04S HAZE             
FLINT          FAIR      62  60  93 CALM      30.05R                  
GROSSE ILE     MOCLDY    64  62  93 E6        30.03R                  
HILLSDALE      FAIR      63  59  88 CALM      30.03S FOG              
HOWELL         FAIR      62  61  96 CALM      30.04R                  

CITY           SKY/WX    TMP DP  RH WIND       PRES   REMARKS
JACKSON        FAIR      62  62 100 CALM      30.04R                  
LAMBERTVILLE     N/A     61  59  91 CALM      30.03R FOG              
LANSING        FAIR      65  63  93 CALM      30.04R                  
LAPEER         FOG       58  58  99 CALM      30.07R VSB 1/4          
MASON          FAIR      64  61  90 CALM      30.05R FOG              
MONROE         FAIR      61  59  94 N7        30.03R                  
MT. CLEMENS    FAIR      62  62 100 N3          N/A                   
PONTIAC        MOCLDY    63  62  97 CALM      30.04R                  
PORT HOPE        N/A     64  63  96 SW5       30.05R                  
PORT HURON       N/A     59  57  94 CALM      30.06R FOG              
TRI CITIES     MOCLDY    65  64  97 SE7       30.04S FOG              
MIDLAND        FAIR      64  63  95 E3        30.03S                  
TROY           FAIR      67  62  84 CALM      30.07R                  
SAGINAW HB     FAIR      63  61  94 E3        30.04S FOG              
$$

SKY/WX - Weather  TMP - Temperature  DP - Dewpoint  RH - Relative Humidity
WIND - Wind Direction/Speed PRES - Barometric Pressure